Regional Weather Roundup
Issued by NWS Newport/Morehead, NC

Current Version | Previous Version | Text Only | Print | Product List | Glossary Off
Versions: 1 2 3 4 5 6 7 8 9 10 11 12 13 14 15 16 17 18 19 20 21 22 23 24 25 26 27 28 29 30 31 32 33 34 35 36 37 38 39 40 41 42 43 44 45 46 47 48 49 50
000 ASUS42 KMHX 270113 RWRMHX WEATHER ROUNDUP FOR EASTERN NORTH CAROLINA NATIONAL WEATHER SERVICE NEWPORT/MOREHEAD CITY NC 900 PM EDT TUE MAY 26 2015 NOTE: "FAIR" INDICATES FEW OR NO CLOUDS BELOW 12,000 FEET WITH NO SIGNIFICANT WEATHER AND/OR OBSTRUCTIONS TO VISIBILITY NCZ015>017-031-032-045>047-102-103-270200- NORTH COAST CITY SKY/WX TMP DP RH WIND PRES REMARKS EDENTON MOCLDY 74 67 76 S15 30.25R ELIZABETH CITY CLEAR 73 65 75 S12G20 30.25R KITTY HAWK CLEAR 73 65 74 S7G17 30.26R MANTEO CLEAR 74 66 76 S18 30.27R $$ NCZ045>047-081-094-103-104-270200- CENTRAL COAST CITY SKY/WX TMP DP RH WIND PRES REMARKS FRISCO CLEAR 73 63 70 S16 30.28R SWANQUARTER N/A 75 N/A N/A SW17G23 30.24S $$ NCZ095-097-098-100-101-270200- SOUTHERN COAST CITY SKY/WX TMP DP RH WIND PRES REMARKS BEAUFORT PTCLDY 74 66 76 S12 30.28R CEDAR ISLAND N/A 73 N/A N/A S12G18 30.33R JACKSONVILLE MOCLDY 75 68 78 S7 30.26R PINEY ISLAND PTCLDY N/A N/A N/A S7 30.28R WILMINGTON CLOUDY 76 69 79 S9G18 30.26R $$ NCZ011>013-027>030-043-044-078>080-089-090>093-098-270200- COASTAL PLAIN CITY SKY/WX TMP DP RH WIND PRES REMARKS AHOSKIE CLEAR 75 68 79 S8 30.23R CLINTON PTCLDY 75 72 89 CALM 30.24F ELIZABETHTOWN PTCLDY 76 69 81 SE7 30.23F GOLDSBORO PTCLDY 76 69 80 SE9 30.22S GREENVILLE PTCLDY 77 70 78 S12 30.25R HAVELOCK PTCLDY 73 65 75 S7 30.27S KENANSVILLE MOCLDY 74 68 82 CALM 30.27R KINSTON MOCLDY 75 68 78 S10 30.26R NEW BERN CLEAR 74 66 76 S8 30.27S RICHLANDS PTCLDY 73 64 73 S5 30.27R ROCKY MOUNT CLOUDY 78 69 73 S10G17 30.22R WASHINGTON CLEAR 74 67 78 S8 30.26R WHITEVILLE CLOUDY 76 68 75 S3 30.23F $$ AMZ130-135-150-152-154-156-158-170-250-252-270-ANZ085-086-088-633-658-670-270200- MARINE OBSERVATIONS STATION/POSITION TIME TEMP WIND PRES WAVE SWELL AIR SEA DIR/SP/G HT/PER HT/PER (UTC) (F) (DEG/KT/KT) (MB) (FT/S) (FT/S) CHESAPEAKE LIGHT 0000 69 170/ 26/ 28 1023.3 64 E VA BEACH 0050 67 64 170/ 12/ 14 1024.4 3/ 5 2/ 6 DUCK 0000 74 61 170/ 19/ 22 1023.1 2 E DUCK 0011 63 N/A 2/ 3 OREGON INLET 0000 74 79 170/ 17/ 19 1024.7 13E OREGON INLT 0100 69 N/A 3/ 5 HATTERAS CG 0000 74 76 160/ 13/ 18 1024.5 DIAMOND BUOY 0050 74 77 160/ 17/ 21 1025.0 3/ 6 2/12 CAPE LOOKOUT 0100 74 180/ 14/ 15 1025.1 BEAUFORT LAB 0000 75 76 180/ 12/ 15 1024.0 27 SE WRIGHTSVLE 0000 73 76 170/ 14/ 16 N/A 5 SE WRIGHTSVLE NOT AVBL 225 S CAPE HAT 0050 74 74 120/ 14/ 17 1025.5 4/ 6 2/ 8 41 SE CHARLESTON 0050 78 76 160/ 14/ 16 1023.5 4/ 7 2/ 7 $$

USA.gov is the U.S. government's official web portal to all federal, state and local government web resources and services.